Mojave, CA

7:33 PM PDT on October 18, 2019 (GMT -0700)
Mojave

Weather History for KMHV - May, 2019

Change the Weather History Date:

Sunday, May 12, 2019

  Actual Average Record
Temperature  
Mean Temperature 72 °F -  
Max Temperature 84 °F 78 °F 94 °F (1984)
Min Temperature 59 °F 52 °F 41 °F (1967)
Cooling Degree Days 6    
Growing Degree Days 22 (Base 50)    
Moisture  
Dew Point 44 °F    
Average Humidity 38    
Maximum Humidity 63    
Minimum Humidity 14    
Precipitation  
Precipitation 0.00 in - - ()
Sea Level Pressure  
Sea Level Pressure 29.94 in    
Wind  
Wind Speed 11 mph (NW)    
Max Wind Speed 30 mph    
Max Gust Speed 39 mph    
Visibility 10 miles    
Events      
Averages and records for this station are not official NWS values.
T = Trace of Precipitation, MM = Missing Value Source: NWS Daily Summary

Daily Weather History Graph

Daily Weather History Graph

Search for Another Location

Airport or City:

Astronomy

May. 12, 2019 Rise Set
Actual Time 5:51 AM PDT 7:47 PM PDT
Civil Twilight 5:23 AM PDT 8:14 PM PDT
Nautical Twilight 4:49 AM PDT 8:48 PM PDT
Astronomical Twilight 4:13 AM PDT 9:25 PM PDT
Moon 1:14 PM PDT (5/12) 2:14 AM PDT (5/12)
Length of Visible Light 14h 51m
Length of Day
13h 55m
First Quarter, 59% of the Moon is Illuminated
May 12
First Quarter
May 18
Full
May 26
Last Quarter
Jun 3
New
Jun 9
First Quarter

Hourly Weather History & Observations

Time (PDT) Temp. Dew Point Humidity Pressure Visibility Wind Dir Wind Speed Gust Speed Precip Events Conditions
12:00 AM 66.2 °F 44.6 °F 46% 29.94 in 10.0 mi WNW 13.8 mph - N/A   Clear
12:20 AM 64.4 °F 42.8 °F 45% 29.94 in 10.0 mi WNW 13.8 mph - N/A   Clear
12:40 AM 64.4 °F 42.8 °F 45% 29.94 in 10.0 mi WNW 13.8 mph - N/A   Clear
1:00 AM 64.4 °F 42.8 °F 45% 29.94 in 10.0 mi NW 15.0 mph - N/A   Clear
1:20 AM 64.4 °F 42.8 °F 45% 29.94 in 10.0 mi WNW 15.0 mph - N/A   Clear
1:40 AM 64.4 °F 42.8 °F 45% 29.94 in 10.0 mi WNW 16.1 mph - N/A   Clear
2:00 AM 64.4 °F 42.8 °F 45% 29.93 in 10.0 mi WNW 12.7 mph 19.6 mph N/A   Clear
2:20 AM 62.6 °F 42.8 °F 48% 29.93 in 10.0 mi WNW 12.7 mph - N/A   Clear
2:40 AM 64.4 °F 42.8 °F 45% 29.93 in 10.0 mi WNW 12.7 mph 18.4 mph N/A   Clear
3:00 AM 62.6 °F 42.8 °F 48% 29.93 in 10.0 mi WNW 11.5 mph - N/A   Clear
3:20 AM 62.6 °F 42.8 °F 48% 29.93 in 10.0 mi WNW 13.8 mph - N/A   Clear
3:40 AM 62.6 °F 42.8 °F 48% 29.93 in 10.0 mi NW 11.5 mph 18.4 mph N/A   Clear
4:00 AM 62.6 °F 42.8 °F 48% 29.94 in 10.0 mi NW 9.2 mph 15.0 mph N/A   Clear
4:20 AM 62.6 °F 44.6 °F 52% 29.94 in 10.0 mi WNW 10.4 mph - N/A   Clear
4:40 AM 62.6 °F 44.6 °F 52% 29.95 in 10.0 mi North 5.8 mph 11.5 mph N/A   Clear
5:00 AM 62.6 °F 44.6 °F 52% 29.95 in 10.0 mi North 9.2 mph - N/A   Clear
5:20 AM 60.8 °F 44.6 °F 55% 29.95 in 10.0 mi North 6.9 mph 13.8 mph N/A   Clear
5:40 AM 60.8 °F 44.6 °F 55% 29.95 in 10.0 mi North 6.9 mph - N/A   Clear
6:00 AM 59.0 °F 46.4 °F 63% 29.96 in 10.0 mi WNW 4.6 mph - N/A   Clear
6:20 AM 62.6 °F 44.6 °F 52% 29.96 in 10.0 mi Calm Calm - N/A   Clear
6:40 AM 60.8 °F 46.4 °F 59% 29.97 in 10.0 mi NW 4.6 mph - N/A   Clear
7:00 AM 64.4 °F 48.2 °F 56% 29.97 in 10.0 mi Calm Calm - N/A   Clear
7:20 AM 68.0 °F 44.6 °F 43% 29.97 in 10.0 mi Calm Calm - N/A   Clear
7:40 AM 69.8 °F 44.6 °F 40% 29.97 in 10.0 mi Calm Calm - N/A   Clear
8:00 AM 68.0 °F 46.4 °F 46% 29.97 in 10.0 mi Calm Calm - N/A   Clear
8:20 AM 71.6 °F 44.6 °F 38% 29.97 in 10.0 mi WNW 5.8 mph - N/A   Clear
8:40 AM 73.4 °F 44.6 °F 36% 29.97 in 10.0 mi Calm Calm - N/A   Clear
9:00 AM 73.4 °F 44.6 °F 36% 29.97 in 10.0 mi Calm Calm - N/A   Clear
9:20 AM 73.4 °F 44.6 °F 36% 29.98 in 10.0 mi East 4.6 mph - N/A   Clear
9:40 AM 73.4 °F 44.6 °F 36% 29.98 in 10.0 mi Calm Calm - N/A   Clear
10:00 AM 73.4 °F 42.8 °F 33% 29.98 in 10.0 mi ESE 4.6 mph - N/A   Clear
10:20 AM 75.2 °F 42.8 °F 31% 29.98 in 10.0 mi Variable 4.6 mph - N/A   Clear
10:40 AM 75.2 °F 44.6 °F 34% 29.98 in 10.0 mi Variable 5.8 mph - N/A   Clear
11:00 AM 75.2 °F 42.8 °F 31% 29.98 in 10.0 mi Calm Calm - N/A   Clear
11:20 AM 77.0 °F 42.8 °F 29% 29.98 in 10.0 mi Variable 5.8 mph - N/A   Clear
11:40 AM 77.0 °F 41.0 °F 28% 29.98 in 10.0 mi Calm Calm - N/A   Clear
12:00 PM 80.6 °F 41.0 °F 24% 29.97 in 10.0 mi Calm Calm - N/A   Clear
12:20 PM 78.8 °F 39.2 °F 24% 29.97 in 10.0 mi North 4.6 mph - N/A   Clear
12:40 PM 80.6 °F 37.4 °F 21% 29.96 in 10.0 mi Variable 4.6 mph 11.5 mph N/A   Clear
1:00 PM 80.6 °F 35.6 °F 20% 29.96 in 10.0 mi Calm Calm - N/A   Clear
1:20 PM 82.4 °F 37.4 °F 20% 29.96 in 10.0 mi WSW 6.9 mph - N/A   Clear
1:40 PM 82.4 °F 35.6 °F 19% 29.95 in 10.0 mi Variable 5.8 mph - N/A   Clear
2:00 PM 84.2 °F 35.6 °F 18% 29.94 in 10.0 mi Variable 4.6 mph - N/A   Clear
2:20 PM 82.4 °F 33.8 °F 17% 29.94 in 10.0 mi East 6.9 mph 20.7 mph N/A   Clear
2:40 PM 82.4 °F 32.0 °F 16% 29.94 in 10.0 mi East 6.9 mph 12.7 mph N/A   Clear
3:00 PM 82.4 °F 30.2 °F 15% 29.93 in 10.0 mi Variable 5.8 mph 12.7 mph N/A   Clear
3:20 PM 84.2 °F 30.2 °F 14% 29.92 in 10.0 mi NNE 6.9 mph - N/A   Clear
3:40 PM 84.2 °F 30.2 °F 14% 29.92 in 10.0 mi Calm Calm 16.1 mph N/A   Clear
4:00 PM 84.2 °F 30.2 °F 14% 29.91 in 10.0 mi Calm Calm - N/A   Clear
4:20 PM 84.2 °F 48.2 °F 29% 29.91 in 10.0 mi WNW 19.6 mph - N/A   Clear
4:40 PM 84.2 °F 48.2 °F 29% 29.91 in 10.0 mi WNW 19.6 mph - N/A   Clear
5:00 PM 84.2 °F 48.2 °F 29% 29.90 in 10.0 mi WNW 17.3 mph - N/A   Clear
5:20 PM 82.4 °F 48.2 °F 30% 29.90 in 10.0 mi WNW 20.7 mph - N/A   Clear
5:40 PM 82.4 °F 48.2 °F 30% 29.90 in 10.0 mi WNW 16.1 mph 24.2 mph N/A   Clear
6:00 PM 80.6 °F 48.2 °F 32% 29.90 in 10.0 mi WNW 19.6 mph - N/A   Clear
6:20 PM 80.6 °F 48.2 °F 32% 29.89 in 10.0 mi WNW 21.9 mph - N/A   Clear
6:40 PM 78.8 °F 48.2 °F 34% 29.89 in 10.0 mi WNW 20.7 mph 28.8 mph N/A   Clear
7:00 PM 78.8 °F 46.4 °F 32% 29.90 in 10.0 mi NW 20.7 mph 27.6 mph N/A   Clear
7:20 PM 77.0 °F 46.4 °F 34% 29.90 in 10.0 mi WNW 24.2 mph 32.2 mph N/A   Clear
7:40 PM 75.2 °F 46.4 °F 36% 29.90 in 10.0 mi WNW 25.3 mph - N/A   Clear
8:00 PM 75.2 °F 46.4 °F 36% 29.91 in 10.0 mi NW 26.5 mph 33.4 mph N/A   Clear
8:20 PM 73.4 °F 50.0 °F 44% 29.91 in 10.0 mi WNW 20.7 mph 32.2 mph N/A   Clear
8:40 PM 71.6 °F 51.8 °F 50% 29.92 in 10.0 mi NW 27.6 mph 38.0 mph N/A   Clear
9:00 PM 71.6 °F 51.8 °F 50% 29.92 in 10.0 mi NW 28.8 mph 38.0 mph N/A   Clear
9:20 PM 71.6 °F 50.0 °F 46% 29.92 in 10.0 mi WNW 29.9 mph 39.1 mph N/A   Clear
9:40 PM 71.6 °F 50.0 °F 46% 29.93 in 10.0 mi WNW 29.9 mph - N/A   Clear
10:00 PM 71.6 °F 48.2 °F 43% 29.94 in 10.0 mi WNW 24.2 mph 34.5 mph N/A   Clear
10:20 PM 71.6 °F 50.0 °F 46% 29.94 in 10.0 mi NW 28.8 mph 34.5 mph N/A   Clear
10:40 PM 71.6 °F 48.2 °F 43% 29.94 in 10.0 mi NW 25.3 mph 34.5 mph N/A   Clear
11:00 PM 71.6 °F 48.2 °F 43% 29.94 in 10.0 mi WNW 19.6 mph 39.1 mph N/A   Clear
11:20 PM 71.6 °F 46.4 °F 41% 29.94 in 10.0 mi WNW 19.6 mph 34.5 mph N/A   Clear
11:40 PM 71.6 °F 46.4 °F 41% 29.94 in 10.0 mi WNW 25.3 mph 36.8 mph N/A   Clear